Regional Weather Roundup
Issued by NWS

Home | Current Version | Previous Version | Text Only | Print | Product List | Glossary Off
Versions: 1 2 3 4 5 6 7 8 9 10 11 12 13 14 15 16 17 18 19 20 21 22 23 24 25 26 27 28 29 30 31 32 33 34 35 36 37 38 39 40 41 42 43 44 45 46 47 48 49 50

410
ASUS45 KABQ 292010
RWRNM
NEW MEXICO REGIONAL WEATHER ROUNDUP
NATIONAL WEATHER SERVICE ALBUQUERQUE NM
200 PM MDT SAT APR 29 2017

NOTE: "FAIR" MEANS FEW OR NO CLOUDS BELOW 12,000 FEET AGL WITH NO
       SIGNIFICANT WEATHER OR OBSTRUCTIONS TO VISION.

      THIS PRODUCT IS RELEASED AS TWO VERSIONS.  ONE VERSION NEAR
      THE TOP OF THE HOUR CONTAINING PRELIMINARY DATA FROM ALBUQUERQUE
      AND OTHER STATIONS.  A FINAL VERSION WITH ADDITIONAL DATA IS
      ISSUED ABOUT 10 MINUTES AFTER THE HOUR.

NMZ501-503-504-510>518-292100-
NORTHWEST PLATEAU/NORTHCENTRAL MOUNTAINS

CITY           SKY/WX    TMP DP  RH WIND       PRES   REMARKS
FARMINGTON     CLOUDY    45  25  45 VRB3      29.95S
LOS ALAMOS     CLOUDY    32  26  77 N15G35    29.95R WCI  22
SANTA FE       LGT SNOW  34  31  88 N21       29.93S FOG     WCI  22
TAOS             N/A     28  19  69 N15       29.95S VSB 3/4 WCI  17
ANGEL FIRE     LGT SNOW  23  20  88 N9        29.94S VSB 1   WCI  13

$$
NMZ402-403-502-505>509-292100-
WESTCENTRAL MOUNTAINS/SOUTHWEST MOUNTAINS

CITY           SKY/WX    TMP DP  RH WIND       PRES   REMARKS
GALLUP         PTSUNNY   38  31  76 CALM      29.96F
GRANTS         CLOUDY    37  32  82 SW9       29.95F WCI  31
SILVER CITY    PTSUNNY   56  10  15 W18G31    29.90S

$$
NMZ407-409-411-412-292100-
SOUTHERN DESERTS

CITY           SKY/WX    TMP DP  RH WIND       PRES   REMARKS
DEMING         FAIR      62   5  10 NW10G24   29.87F
LAS CRUCES     CLOUDY    53  24  32 W12G29    29.91R
HOLLOMAN AFB   FAIR      48  40  75 N22       29.94S
ALAMOGORDO     FAIR      46  39  76 N15       29.92S
T OR C         PTSUNNY   50  29  44 NE12G23   29.91F

$$
NMZ519>523-292100-
CENTRAL VALLEYS/CENTRAL HIGHLANDS

CITY           SKY/WX    TMP DP  RH WIND       PRES   REMARKS
ALBUQUERQUE    CLOUDY    43  34  70 CALM      29.93F
DOUBLE EAGLE   PTSUNNY   43  34  70 NE8       29.94F
MORIARTY ARPT  LGT SNOW  36  32  87 NE5       29.96S WCI  32
CLINES CORNERS LGT SNOW  33  28  81 NW8       29.93S WCI  26
BELEN          FAIR      44  30  56 N5        29.93F
SOCORRO        PTSUNNY   49  27  41 N9G17     29.94F

$$
NMZ524>526-539-540-292100-
SOUTHCENTRAL MOUNTAINS

CITY           SKY/WX    TMP DP  RH WIND       PRES   REMARKS
RUIDOSO        LGT SNOW  28  27  93 N14       29.93R WCI  17

$$
NMZ527>531-292100-
NORTHEAST HIGHLANDS/NORTHEAST PLAINS

CITY           SKY/WX    TMP DP  RH WIND       PRES   REMARKS
LAS VEGAS      SNOW      28  25  88 N22       29.93R VSB 1/2 WCI  14
RATON          CLOUDY    32  21  64 N30G45    29.88F WCI  18
CLAYTON        LGT SNOW  32  28  85 N36G45    29.90R FOG     WCI  16

$$
NMZ532>537-292100-
EASTCENTRAL PLAINS

CITY           SKY/WX    TMP DP  RH WIND       PRES   REMARKS
SANTA ROSA     CLOUDY    35  34  94 N20G26    29.93S WCI  25
TUCUMCARI      SNOW      34  33  96 N12       29.93R VSB 1/2 WCI  25
CANNON AFB     CLOUDY    39  39  99 N23G33    29.85F WCI  28
CLOVIS AIRPORT CLOUDY    39  32  75 N25       29.85F WCI  28

$$
NMZ028-029-538-292100-
SOUTHEAST PLAINS

CITY           SKY/WX    TMP DP  RH WIND       PRES   REMARKS
ROSWELL        CLOUDY    42  36  79 N21         N/A
ARTESIA        LGT RAIN  43  43 100 N20       29.90S
CARLSBAD       PTSUNNY   48  43  82 SW3       29.87S
HOBBS          PTSUNNY   45  43  93 CALM      29.87F


$$




USA.gov is the U.S. government's official web portal to all federal, state and local government web resources and services.